{"data":{"norad_id":67084,"intl_designator":"2025-298K","name":"STARLINK-36166","alt_names":[],"object_type":"PAYLOAD","status":"ACTIVE","operator":null,"country":"US","launch_date":"2025-12-14","launch_site_code":"AFWTR","launch_vehicle":null,"mission":null,"orbit_class":"UNKNOWN","rcs_meters":null,"size_class":null,"mass_kg":null,"dimensions":null,"purposes":["comms"],"wikipedia_slug":null,"has_3d_model":false,"image_url":null,"decayed_at":null,"tle_current":{"epoch":"2026-05-25T03:07:15.362688Z","epoch_age_seconds":57095,"freshness":"FRESH","line1":"1 67084U 25298K   26145.13003892  .00003751  00000+0  32191-3 0  9999","line2":"2 67084  70.0012 181.8689 0003310 268.4071  91.6709 14.98337583 24664","mean_motion":14.98337583,"eccentricity":0.000331,"inclination_deg":70.0012,"raan_deg":181.8689,"arg_perigee_deg":268.4071,"mean_anomaly_deg":91.6709,"bstar":0.00032191,"rev_number":2466,"period_min":96.106512733719,"perigee_km":569.73193515629,"apogee_km":574.33294732639,"semimajor_km":6950.1694412413,"source":"CELESTRAK","updated_at":"2026-05-25T13:38:21.467041Z"}}}